Location: Brotuna
(46.2000°N, 22.6000°E)
Time: 18:38:12
(UTC+00:00)

FALCON 9 DEB - Pass Details

Date: 09 April 2020
Orbit: 429 x 441 km, 53.0° (Epoch: 23 May)

Event Time Altitude Azimuth Distance (km) Brightness Sun altitude
Rises 17:51:35 0° 224° (SW) 2,420 7.3 -7.8°
Reaches altitude 10° 17:53:43 10° 219° (SW) 1,554 6.2 -8.2°
Maximum altitude 17:57:07 51° 143° (SE) 564 3.4 -8.7°
Drops below altitude 10° 18:00:32 10° 67° (ENE) 1,559 5.5 -9.3°
Enters shadow 18:01:41 - 63° (ENE) 2,021 6.1 -9.5°
